Location: Unspecified
(0.0000°N, 0.0000°E)
Time: 06:34:32
(UTC+00:00)

Vanguard 2 - Pass Details

Date: 21 November 2019
Orbit: 553 x 2938 km, 32.9° (Epoch: 10 December)

Event Time Altitude Azimuth Distance (km) Brightness Sun altitude
Rises 04:19:51 0° 239° (WSW) 6,733 12.0 -20.1°
Reaches altitude 10° 04:24:19 10° 241° (WSW) 5,766 11.6 -19.1°
Maximum altitude 04:42:14 73° 323° (NW) 2,706 10.1 -14.9°
Drops below altitude 10° 04:55:22 10° 46° (NE) 4,381 11.7 -11.8°
Sets 04:58:16 0° 49° (NE) 5,103 12.1 -11.2°
